| time (UTC) | temp F | wind direction | speed MPH | gust MPH | rain 1hr in | rain 24hr in | rain mn in | humidity % | barometer mb |
| 20260906081127 | 79 | 256 | 0.0 | 1.0 | 0.00 | 0.00 | 0.00 | 1012.6 | |
| 20260906080655 | 79 | 256 | 0.0 | 1.0 | 0.00 | 0.00 | 0.00 | 1012.5 | |
| 20260906080232 | 79 | 256 | 0.0 | 2.0 | 0.00 | 0.00 | 0.00 | 1012.6 | |
| 20260906075639 | 79 | 256 | 1.0 | 2.0 | 0.00 | 0.00 | 0.00 | 1012.6 | |
| 20260906075217 | 79 | 256 | 1.0 | 2.0 | 0.00 | 0.00 | 0.00 | 1012.8 | |
| 20260906074624 | 79 | 256 | 1.0 | 2.0 | 0.00 | 0.00 | 0.00 | 1012.7 | |
| 20260906074201 | 79 | 256 | 1.0 | 4.0 | 0.00 | 0.00 | 0.00 | 1012.9 | |
| 20260906073626 | 79 | 210 | 1.0 | 4.0 | 0.00 | 0.00 | 0.00 | 1013.0 | |
| 20260906073151 | 79 | 169 | 0.0 | 1.0 | 0.00 | 0.00 | 0.00 | 1013.1 | |
| 20260906072647 | 80 | 169 | 0.0 | 1.0 | 0.00 | 0.00 | 0.00 | 1013.3 | |
| 20260906072154 | 80 | 168 | 0.0 | 1.0 | 0.00 | 0.00 | 0.00 | 1013.2 | |
| 20260906071635 | 80 | 139 | 0.0 | 0.0 | 0.00 | 0.00 | 0.00 | 1013.2 | |
| 20260906071204 | 80 | 140 | 0.0 | 2.0 | 0.00 | 0.00 | 0.00 | 1013.2 | |
| 20260906070612 | 80 | 140 | 0.0 | 2.0 | 0.00 | 0.00 | 0.00 | 1013.1 | |
| 20260906070127 | 80 | 140 | 1.0 | 4.0 | 0.00 | 0.00 | 0.00 | 1013.2 | |
| 20260906065626 | 81 | 111 | 2.0 | 5.0 | 0.00 | 0.00 | 0.00 | 1013.2 | |
| 20260906065135 | 81 | 131 | 2.0 | 5.0 | 0.00 | 0.00 | 0.00 | 1013.3 | |
| 20260906064617 | 81 | 135 | 3.0 | 5.0 | 0.00 | 0.00 | 0.00 | 1013.3 | |
| 20260906064145 | 81 | 126 | 2.0 | 6.0 | 0.00 | 0.00 | 0.00 | 1013.4 | |
| 20260906063626 | 81 | 142 | 3.0 | 7.0 | 0.00 | 0.00 | 0.00 | 1013.4 | |
| 20260906063115 | 81 | 145 | 4.0 | 7.0 | 0.00 | 0.00 | 0.00 | 1013.4 | |
| 20260906062616 | 81 | 148 | 3.0 | 5.0 | 0.00 | 0.00 | 0.00 | 1013.4 | |
| 20260906062121 | 81 | 140 | 3.0 | 5.0 | 0.00 | 0.00 | 0.00 | 1013.4 | |
| 20260906061629 | 82 | 121 | 1.0 | 3.0 | 0.00 | 0.00 | 0.00 | 1013.6 | |
| 20260906061129 | 82 | 159 | 2.0 | 5.0 | 0.00 | 0.00 | 0.00 | 1013.5 | |
| 20260906060637 | 82 | 152 | 2.0 | 5.0 | 0.00 | 0.00 | 0.00 | 1013.6 | |
| 20260906060123 | 82 | 151 | 2.0 | 5.0 | 0.00 | 0.00 | 0.00 | 1013.5 | |
| 20260906055645 | 82 | 152 | 2.0 | 5.0 | 0.00 | 0.00 | 0.00 | 1013.6 | |
| 20260906055129 | 83 | 156 | 1.0 | 2.0 | 0.00 | 0.00 | 0.00 | 1013.6 | |
| 20260906054637 | 83 | 156 | 0.0 | 4.0 | 0.00 | 0.00 | 0.00 | 1013.5 | |
| 20260906054117 | 83 | 156 | 1.0 | 5.0 | 0.00 | 0.00 | 0.00 | 1013.4 | |
| 20260906053625 | 83 | 166 | 1.0 | 6.0 | 0.00 | 0.00 | 0.00 | 1013.4 | |
| 20260906053125 | 83 | 147 | 2.0 | 7.0 | 0.00 | 0.00 | 0.00 | 1013.5 | |
| 20260906052634 | 83 | 152 | 3.0 | 7.0 | 0.00 | 0.00 | 0.00 | 1013.6 | |
| 20260906052115 | 83 | 115 | 4.0 | 8.0 | 0.00 | 0.00 | 0.00 | 1013.5 | |
| 20260906051623 | 83 | 149 | 5.0 | 8.0 | 0.00 | 0.00 | 0.00 | 1013.6 | |
| 20260906051123 | 83 | 151 | 4.0 | 10.0 | 0.00 | 0.00 | 0.00 | 1013.6 | |
| 20260906050630 | 83 | 161 | 3.0 | 6.0 | 0.00 | 0.00 | 0.00 | 1013.6 | |
| 20260906050129 | 84 | 153 | 2.0 | 7.0 | 0.00 | 0.00 | 0.00 | 1013.8 | |
| 20260906045632 | 84 | 144 | 5.0 | 7.0 | 0.00 | 0.00 | 0.00 | 1013.8 | |
| 20260906045119 | 84 | 140 | 4.0 | 8.0 | 0.00 | 0.00 | 0.00 | 1013.7 | |
| 20260906044649 | 84 | 123 | 3.0 | 8.0 | 0.00 | 0.00 | 0.00 | 1013.7 | |
| 20260906044123 | 84 | 167 | 4.0 | 8.0 | 0.00 | 0.00 | 0.00 | 1013.7 | |
| 20260906043652 | 84 | 142 | 4.0 | 9.0 | 0.00 | 0.00 | 0.00 | 1013.7 | |
| 20260906043227 | 85 | 155 | 4.0 | 10.0 | 0.00 | 0.00 | 0.00 | 1013.7 | |
| 20260906042634 | 85 | 142 | 4.0 | 12.0 | 0.00 | 0.00 | 0.00 | 1013.7 | |
| 20260906042114 | 85 | 139 | 5.0 | 12.0 | 0.00 | 0.00 | 0.00 | 1013.7 | |
| 20260906041636 | 85 | 173 | 6.0 | 10.0 | 0.00 | 0.00 | 0.00 | 1013.7 | |
| 20260906041212 | 85 | 159 | 5.0 | 11.0 | 0.00 | 0.00 | 0.00 | 1013.5 | |
| 20260906040621 | 85 | 148 | 6.0 | 11.0 | 0.00 | 0.00 | 0.00 | 1013.5 | |
| 20260906040129 | 86 | 104 | 6.0 | 12.0 | 0.00 | 0.00 | 0.00 | 1013.5 | |
| 20260906035638 | 86 | 134 | 6.0 | 13.0 | 0.00 | 0.00 | 0.00 | 1013.4 | |
| 20260906035113 | 86 | 86 | 7.0 | 13.0 | 0.00 | 0.00 | 0.00 | 1013.2 | |
| 20260906034643 | 86 | 152 | 6.0 | 12.0 | 0.00 | 0.00 | 0.00 | 1013.2 | |
| 20260906034218 | 86 | 126 | 6.0 | 9.0 | 0.00 | 0.00 | 0.00 | 1013.2 | |
| 20260906033706 | 86 | 139 | 5.0 | 10.0 | 0.00 | 0.00 | 0.00 | 1013.1 | |
| 20260906033147 | 87 | 134 | 6.0 | 10.0 | 0.00 | 0.00 | 0.00 | 1013.1 | |
| 20260906032652 | 87 | 165 | 5.0 | 10.0 | 0.00 | 0.00 | 0.00 | 1012.9 | |
| 20260906032127 | 87 | 161 | 5.0 | 11.0 | 0.00 | 0.00 | 0.00 | 1012.8 | |
| 20260906031655 | 87 | 155 | 6.0 | 13.0 | 0.00 | 0.00 | 0.00 | 1012.7 | |
| 20260906031207 | 87 | 171 | 7.0 | 13.0 | 0.00 | 0.00 | 0.00 | 1012.6 | |
| 20260906030637 | 87 | 158 | 6.0 | 13.0 | 0.00 | 0.00 | 0.00 | 1012.5 | |
| 20260906030144 | 87 | 153 | 8.0 | 15.0 | 0.00 | 0.00 | 0.00 | 1012.4 | |
| 20260906025700 | 87 | 144 | 8.0 | 15.0 | 0.00 | 0.00 | 0.00 | 1012.3 | |
| 20260906025208 | 86 | 138 | 8.0 | 12.0 | 0.00 | 0.00 | 0.00 | 1012.2 | |
| 20260906024635 | 86 | 123 | 6.0 | 11.0 | 0.00 | 0.00 | 0.00 | 1012.0 | |
| 20260906024146 | 86 | 128 | 5.0 | 9.0 | 0.00 | 0.00 | 0.00 | 1012.0 | |
| 20260906023651 | 86 | 136 | 2.0 | 6.0 | 0.00 | 0.00 | 0.00 | 1011.8 | |
| 20260906023129 | 86 | 121 | 2.0 | 4.0 | 0.00 | 0.00 | 0.00 | 1011.7 | |
| 20260906022655 | 86 | 117 | 1.0 | 6.0 | 0.00 | 0.00 | 0.00 | 1011.5 | |
| 20260906022130 | 86 | 95 | 2.0 | 6.0 | 0.00 | 0.00 | 0.00 | 1011.4 | |
| 20260906021652 | 86 | 101 | 2.0 | 6.0 | 0.00 | 0.00 | 0.00 | 1011.2 | |
| 20260906021140 | 86 | 81 | 2.0 | 9.0 | 0.00 | 0.00 | 0.00 | 1011.2 | |
| 20260906020614 | 86 | 67 | 6.0 | 9.0 | 0.00 | 0.00 | 0.00 | 1011.1 | |
| 20260906020141 | 87 | 104 | 5.0 | 9.0 | 0.00 | 0.00 | 0.00 | 1011.1 | |
| 20260906015618 | 88 | 113 | 0.0 | 1.0 | 0.00 | 0.00 | 0.00 | 1011.0 | |
| 20260906015147 | 88 | 129 | 0.0 | 0.0 | 0.00 | 0.00 | 0.00 | 1010.8 | |
| 20260906014625 | 89 | 129 | 0.0 | 0.0 | 0.00 | 0.00 | 0.00 | 1010.8 | |
| 20260906014154 | 89 | 129 | 0.0 | 0.0 | 0.00 | 0.00 | 0.00 | 1010.8 | |
| 20260906013630 | 90 | 129 | 0.0 | 0.0 | 0.00 | 0.00 | 0.00 | 1010.8 | |
| 20260906013159 | 90 | 129 | 0.0 | 0.0 | 0.00 | 0.00 | 0.00 | 1010.8 | |
| 20260906012635 | 90 | 129 | 0.0 | 0.0 | 0.00 | 0.00 | 0.00 | 1010.8 | |
| 20260906012145 | 91 | 129 | 0.0 | 0.0 | 0.00 | 0.00 | 0.00 | 1010.8 | |
| 20260906011612 | 91 | 129 | 0.0 | 0.0 | 0.00 | 0.00 | 0.00 | 1010.8 | |
| 20260906011149 | 91 | 129 | 0.0 | 0.0 | 0.00 | 0.00 | 0.00 | 1010.7 | |
| 20260906010623 | 92 | 129 | 0.0 | 0.0 | 0.00 | 0.00 | 0.00 | 1010.7 | |
| 20260906010138 | 92 | 129 | 0.0 | 4.0 | 0.00 | 0.00 | 0.00 | 1010.5 | |
| 20260906005702 | 92 | 129 | 1.0 | 5.0 | 0.00 | 0.00 | 0.00 | 1010.5 | |
| 20260906005138 | 93 | 125 | 2.0 | 6.0 | 0.00 | 0.00 | 0.00 | 1010.4 | |
| 20260906004647 | 93 | 128 | 2.0 | 6.0 | 0.00 | 0.00 | 0.00 | 1010.4 | |
| 20260906004116 | 94 | 115 | 2.0 | 5.0 | 0.00 | 0.00 | 0.00 | 1010.4 | |
| 20260906003653 | 94 | 131 | 2.0 | 5.0 | 0.00 | 0.00 | 0.00 | 1010.4 | |
| 20260906003221 | 94 | 120 | 3.0 | 5.0 | 0.00 | 0.00 | 0.00 | 1010.4 | |
| 20260906002636 | 95 | 123 | 2.0 | 3.0 | 0.00 | 0.00 | 0.00 | 1010.4 | |
| 20260906002146 | 95 | 120 | 1.0 | 6.0 | 0.00 | 0.00 | 0.00 | 1010.4 | |
| 20260906001654 | 95 | 121 | 2.0 | 6.0 | 0.00 | 0.00 | 0.00 | 1010.4 | |
| 20260906001128 | 95 | 138 | 3.0 | 6.0 | 0.00 | 0.00 | 0.00 | 1010.5 | |
| 20260906000656 | 95 | 141 | 2.0 | 5.0 | 0.00 | 0.00 | 0.00 | 1010.4 | |
| 20260906000132 | 95 | 103 | 3.0 | 6.0 | 0.00 | 0.00 | 0.00 | 1010.4 | |
| 20260905235700 | 95 | 121 | 4.0 | 7.0 | 0.00 | 0.00 | 0.00 | 1010.4 | |
| 20260905235138 | 95 | 113 | 2.0 | 7.0 | 0.00 | 0.00 | 0.00 | 1010.4 | |
| 20260905234647 | 95 | 130 | 4.0 | 8.0 | 0.00 | 0.00 | 0.00 | 1010.4 | |
| 20260905234116 | 95 | 126 | 4.0 | 10.0 | 0.00 | 0.00 | 0.00 | 1010.5 | |
| 20260905233653 | 95 | 76 | 3.0 | 10.0 | 0.00 | 0.00 | 0.00 | 1010.4 | |
| 20260905233125 | 95 | 79 | 5.0 | 8.0 | 0.00 | 0.00 | 0.00 | 1010.4 | |
| 20260905232702 | 95 | 109 | 4.0 | 8.0 | 0.00 | 0.00 | 0.00 | 1010.4 | |
| 20260905232208 | 95 | 103 | 4.0 | 8.0 | 0.00 | 0.00 | 0.00 | 1010.4 | |
| 20260905231642 | 95 | 163 | 5.0 | 8.0 | 0.00 | 0.00 | 0.00 | 1010.4 | |
| 20260905231206 | 95 | 130 | 5.0 | 9.0 | 0.00 | 0.00 | 0.00 | 1010.3 | |
| 20260905230642 | 95 | 127 | 5.0 | 9.0 | 0.00 | 0.00 | 0.00 | 1010.3 | |
| 20260905230209 | 95 | 126 | 5.0 | 9.0 | 0.00 | 0.00 | 0.00 | 1010.3 | |
| 20260905225624 | 95 | 119 | 5.0 | 9.0 | 0.00 | 0.00 | 0.00 | 1010.4 | |
| 20260905225152 | 95 | 126 | 5.0 | 10.0 | 0.00 | 0.00 | 0.00 | 1010.4 | |
| 20260905224728 | 95 | 135 | 5.0 | 10.0 | 0.00 | 0.00 | 0.00 | 1010.4 | |
| 20260905224141 | 95 | 142 | 6.0 | 11.0 | 0.00 | 0.00 | 0.00 | 1010.6 | |
| 20260905223649 | 95 | 148 | 5.0 | 10.0 | 0.00 | 0.00 | 0.00 | 1010.5 | |
| 20260905223215 | 94 | 140 | 6.0 | 10.0 | 0.00 | 0.00 | 0.00 | 1010.5 | |
| 20260905222624 | 94 | 129 | 5.0 | 8.0 | 0.00 | 0.00 | 0.00 | 1010.6 | |
| 20260905222200 | 93 | 144 | 2.0 | 6.0 | 0.00 | 0.00 | 0.00 | 1010.5 | |
| 20260905221649 | 93 | 138 | 1.0 | 6.0 | 0.00 | 0.00 | 0.00 | 1010.5 | |
| 20260905221124 | 93 | 136 | 3.0 | 7.0 | 0.00 | 0.00 | 0.00 | 1010.6 | |
| 20260905220633 | 93 | 90 | 4.0 | 8.0 | 0.00 | 0.00 | 0.00 | 1010.7 | |
| 20260905220147 | 93 | 94 | 6.0 | 11.0 | 0.00 | 0.00 | 0.00 | 1010.8 | |
| 20260905215616 | 94 | 138 | 4.0 | 8.0 | 0.00 | 0.00 | 0.00 | 1010.8 | |
| 20260905215145 | 94 | 98 | 4.0 | 10.0 | 0.00 | 0.00 | 0.00 | 1010.8 | |
| 20260905214658 | 94 | 134 | 6.0 | 13.0 | 0.00 | 0.00 | 0.00 | 1010.7 | |
| 20260905214131 | 95 | 109 | 7.0 | 14.0 | 0.00 | 0.00 | 0.00 | 1010.6 | |
| 20260905213700 | 96 | 118 | 7.0 | 14.0 | 0.00 | 0.00 | 0.00 | 1010.6 | |
| 20260905213128 | 96 | 94 | 9.0 | 14.0 | 0.00 | 0.00 | 0.00 | 1010.7 | |
| 20260905212703 | 96 | 96 | 7.0 | 13.0 | 0.00 | 0.00 | 0.00 | 1010.7 | |
| 20260905212132 | 96 | 102 | 5.0 | 10.0 | 0.00 | 0.00 | 0.00 | 1010.7 | |
| 20260905211639 | 96 | 96 | 4.0 | 9.0 | 0.00 | 0.00 | 0.00 | 1010.8 | |
| 20260905211116 | 95 | 235 | 4.0 | 7.0 | 0.00 | 0.00 | 0.00 | 1010.9 | |
| 20260905210646 | 95 | 196 | 2.0 | 5.0 | 0.00 | 0.00 | 0.00 | 1010.8 | |
| 20260905210152 | 94 | 140 | 3.0 | 10.0 | 0.00 | 0.00 | 0.00 | 1010.9 | |
| 20260905205624 | 95 | 153 | 7.0 | 10.0 | 0.00 | 0.00 | 0.00 | 1011.0 | |
| 20260905205140 | 95 | 160 | 1.0 | 10.0 | 0.00 | 0.00 | 0.00 | 1011.0 | |
| 20260905204645 | 94 | 138 | 6.0 | 10.0 | 0.00 | 0.00 | 0.00 | 1011.1 | |
| 20260905204221 | 94 | 120 | 5.0 | 8.0 | 0.00 | 0.00 | 0.00 | 1011.3 | |
| 20260905203630 | 93 | 141 | 5.0 | 10.0 | 0.00 | 0.00 | 0.00 | 1011.4 | |
| 20260905203119 | 93 | 144 | 4.0 | 8.0 | 0.00 | 0.00 | 0.00 | 1011.5 | |
| 20260905202647 | 93 | 129 | 4.0 | 9.0 | 0.00 | 0.00 | 0.00 | 1011.5 | |
| 20260905202123 | 94 | 104 | 4.0 | 8.0 | 0.00 | 0.00 | 0.00 | 1011.6 | |
| 20260905201651 | 94 | 285 | 2.0 | 11.0 | 0.00 | 0.00 | 0.00 | 1011.8 | |
| 20260905201127 | 95 | 155 | 6.0 | 22.0 | 0.00 | 0.00 | 0.00 | 1011.9 | |
| 20260905200654 | 95 | 110 | 9.0 | 22.0 | 0.00 | 0.00 | 0.00 | 1011.9 | |
| 20260905200141 | 95 | 121 | 5.0 | 9.0 | 0.00 | 0.00 | 0.00 | 1012.0 | |
| 20260905195708 | 95 | 211 | 6.0 | 9.0 | 0.00 | 0.00 | 0.00 | 1012.0 | |
| 20260905195139 | 94 | 153 | 3.0 | 9.0 | 0.00 | 0.00 | 0.00 | 1012.1 | |
| 20260905194652 | 94 | 224 | 4.0 | 9.0 | 0.00 | 0.00 | 0.00 | 1012.2 | |
| 20260905193658 | 93 | 132 | 4.0 | 12.0 | 0.00 | 0.00 | 0.00 | 1012.3 | |
| 20260905193204 | 93 | 148 | 7.0 | 12.0 | 0.00 | 0.00 | 0.00 | 1012.5 | |
| 20260905192639 | 92 | 129 | 8.0 | 12.0 | 0.00 | 0.00 | 0.00 | 1012.5 | |
| 20260905192205 | 91 | 91 | 7.0 | 12.0 | 0.00 | 0.00 | 0.00 | 1012.6 | |
| 20260905191640 | 92 | 121 | 5.0 | 10.0 | 0.00 | 0.00 | 0.00 | 1012.7 | |
| 20260905191145 | 92 | 145 | 5.0 | 9.0 | 0.00 | 0.00 | 0.00 | 1012.9 | |
| 20260905190618 | 93 | 130 | 6.0 | 8.0 | 0.00 | 0.00 | 0.00 | 1013.0 | |
| 20260905190138 | 94 | 88 | 5.0 | 9.0 | 0.00 | 0.00 | 0.00 | 1013.0 | |
| 20260905185619 | 94 | 168 | 6.0 | 9.0 | 0.00 | 0.00 | 0.00 | 1013.2 | |
| 20260905185147 | 93 | 165 | 4.0 | 9.0 | 0.00 | 0.00 | 0.00 | 1013.2 | |
| 20260905184720 | 93 | 234 | 6.0 | 9.0 | 0.00 | 0.00 | 0.00 | 1013.4 | |
| 20260905184229 | 93 | 198 | 3.0 | 10.0 | 0.00 | 0.00 | 0.00 | 1013.3 | |
| 20260905183642 | 93 | 142 | 4.0 | 14.0 | 0.00 | 0.00 | 0.00 | 1013.5 | |
| 20260905183207 | 93 | 171 | 8.0 | 14.0 | 0.00 | 0.00 | 0.00 | 1013.5 | |
| 20260905182625 | 92 | 149 | 5.0 | 12.0 | 0.00 | 0.00 | 0.00 | 1013.6 | |
| 20260905182152 | 91 | 130 | 6.0 | 12.0 | 0.00 | 0.00 | 0.00 | 1013.7 | |
| 20260905181620 | 91 | 98 | 3.0 | 9.0 | 0.00 | 0.00 | 0.00 | 1013.7 | |
| 20260905181155 | 91 | 113 | 4.0 | 9.0 | 0.00 | 0.00 | 0.00 | 1013.8 | |
| 20260905180622 | 91 | 96 | 4.0 | 10.0 | 0.00 | 0.00 | 0.00 | 1014.0 | |
| 20260905180158 | 91 | 161 | 4.0 | 10.0 | 0.00 | 0.00 | 0.00 | 1014.1 | |
| 20260905175706 | 91 | 126 | 5.0 | 9.0 | 0.00 | 0.00 | 0.00 | 1014.2 | |
| 20260905175144 | 91 | 194 | 2.0 | 10.0 | 0.00 | 0.00 | 0.00 | 1014.3 | |
| 20260905174650 | 91 | 171 | 4.0 | 10.0 | 0.00 | 0.00 | 0.00 | 1014.4 | |
| 20260905174204 | 91 | 175 | 4.0 | 8.0 | 0.00 | 0.00 | 0.00 | 1014.4 | |
| 20260905173633 | 91 | 206 | 5.0 | 12.0 | 0.00 | 0.00 | 0.00 | 1014.4 | |
| 20260905173208 | 91 | 111 | 4.0 | 12.0 | 0.00 | 0.00 | 0.00 | 1014.5 | |
| 20260905172636 | 91 | 173 | 5.0 | 12.0 | 0.00 | 0.00 | 0.00 | 1014.5 | |
| 20260905172145 | 91 | 160 | 7.0 | 12.0 | 0.00 | 0.00 | 0.00 | 1014.5 | |
| 20260905171631 | 90 | 165 | 4.0 | 13.0 | 0.00 | 0.00 | 0.00 | 1014.6 | |
| 20260905171148 | 90 | 163 | 5.0 | 12.0 | 0.00 | 0.00 | 0.00 | 1014.6 | |
| 20260905170618 | 90 | 167 | 7.0 | 12.0 | 0.00 | 0.00 | 0.00 | 1014.6 | |
| 20260905170154 | 90 | 168 | 7.0 | 12.0 | 0.00 | 0.00 | 0.00 | 1014.6 | |
| 20260905165721 | 89 | 171 | 3.0 | 13.0 | 0.00 | 0.00 | 0.00 | 1014.6 | |
| 20260905165129 | 88 | 176 | 7.0 | 13.0 | 0.00 | 0.00 | 0.00 | 1014.7 | |
| 20260905164645 | 88 | 155 | 4.0 | 10.0 | 0.00 | 0.00 | 0.00 | 1014.7 | |
| 20260905164114 | 88 | 206 | 8.0 | 10.0 | 0.00 | 0.00 | 0.00 | 1014.7 | |
| 20260905163643 | 88 | 198 | 3.0 | 11.0 | 0.00 | 0.00 | 0.00 | 1014.7 | |
| 20260905163218 | 87 | 199 | 3.0 | 11.0 | 0.00 | 0.00 | 0.00 | 1014.8 | |
| 20260905162626 | 87 | 212 | 6.0 | 10.0 | 0.00 | 0.00 | 0.00 | 1014.8 | |
| 20260905162201 | 87 | 147 | 4.0 | 9.0 | 0.00 | 0.00 | 0.00 | 1014.9 | |
| 20260905161634 | 87 | 193 | 3.0 | 9.0 | 0.00 | 0.00 | 0.00 | 1015.0 | |
| 20260905161147 | 87 | 180 | 6.0 | 10.0 | 0.00 | 0.00 | 0.00 | 1015.0 | |
| 20260905160654 | 87 | 209 | 7.0 | 12.0 | 0.00 | 0.00 | 0.00 | 1015.0 | |
| 20260905160129 | 87 | 124 | 4.0 | 11.0 | 0.00 | 0.00 | 0.00 | 1015.0 | |
| 20260905155650 | 86 | 163 | 6.0 | 9.0 | 0.00 | 0.00 | 0.00 | 1014.9 | |
| 20260905155115 | 85 | 226 | 4.0 | 9.0 | 0.00 | 0.00 | 0.00 | 1014.9 | |
| 20260905154650 | 85 | 188 | 4.0 | 9.0 | 0.00 | 0.00 | 0.00 | 1014.9 | |
| 20260905154218 | 85 | 254 | 4.0 | 10.0 | 0.00 | 0.00 | 0.00 | 1014.9 | |
| 20260905153634 | 85 | 236 | 6.0 | 10.0 | 0.00 | 0.00 | 0.00 | 1014.9 | |
| 20260905153203 | 85 | 211 | 5.0 | 12.0 | 0.00 | 0.00 | 0.00 | 1014.9 | |
| 20260905152617 | 85 | 198 | 6.0 | 12.0 | 0.00 | 0.00 | 0.00 | 1014.8 | |
| 20260905152146 | 85 | 204 | 7.0 | 10.0 | 0.00 | 0.00 | 0.00 | 1014.8 | |
| 20260905151626 | 84 | 231 | 6.0 | 10.0 | 0.00 | 0.00 | 0.00 | 1014.7 | |
| 20260905151155 | 83 | 213 | 7.0 | 10.0 | 0.00 | 0.00 | 0.00 | 1014.8 | |
| 20260905150631 | 82 | 213 | 4.0 | 11.0 | 0.00 | 0.00 | 0.00 | 1014.7 | |
| 20260905150200 | 82 | 215 | 6.0 | 9.0 | 0.00 | 0.00 | 0.00 | 1014.7 | |
| 20260905145626 | 81 | 169 | 3.0 | 11.0 | 0.00 | 0.00 | 0.00 | 1014.7 | |
| 20260905145201 | 80 | 165 | 6.0 | 11.0 | 0.00 | 0.00 | 0.00 | 1014.7 | |
| 20260905144708 | 80 | 200 | 5.0 | 8.0 | 0.00 | 0.00 | 0.00 | 1014.7 | |
| 20260905144124 | 79 | 171 | 4.0 | 8.0 | 0.00 | 0.00 | 0.00 | 1014.8 | |
| 20260905143652 | 79 | 175 | 5.0 | 8.0 | 0.00 | 0.00 | 0.00 | 1014.9 | |
| 20260905143132 | 79 | 219 | 5.0 | 8.0 | 0.00 | 0.00 | 0.00 | 1014.8 | |
| 20260905142700 | 79 | 200 | 3.0 | 7.0 | 0.00 | 0.00 | 0.00 | 1014.8 | |
| 20260905142136 | 78 | 184 | 3.0 | 6.0 | 0.00 | 0.00 | 0.00 | 1014.7 | |
| 20260905141703 | 78 | 150 | 1.0 | 5.0 | 0.00 | 0.00 | 0.00 | 1014.7 | |
| 20260905141132 | 78 | 142 | 1.0 | 5.0 | 0.00 | 0.00 | 0.00 | 1014.8 | |
| 20260905140649 | 78 | 174 | 1.0 | 5.0 | 0.00 | 0.00 | 0.00 | 1014.7 | |
| 20260905140115 | 78 | 99 | 1.0 | 5.0 | 0.00 | 0.00 | 0.00 | 1014.6 | |
| 20260905135644 | 77 | 118 | 3.0 | 5.0 | 0.00 | 0.00 | 0.00 | 1014.6 | |
| 20260905135124 | 77 | 89 | 0.0 | 2.0 | 0.00 | 0.00 | 0.00 | 1014.6 | |
| 20260905134653 | 76 | 243 | 0.0 | 2.0 | 0.00 | 0.00 | 0.00 | 1014.6 | |
| 20260905134131 | 76 | 322 | 0.0 | 2.0 | 0.00 | 0.00 | 0.00 | 1014.6 | |
| 20260905133701 | 75 | 315 | 1.0 | 2.0 | 0.00 | 0.00 | 0.00 | 1014.6 | |
| 20260905133137 | 74 | 315 | 0.0 | 0.0 | 0.00 | 0.00 | 0.00 | 1014.5 | |
| 20260905132707 | 74 | 315 | 0.0 | 1.0 | 0.00 | 0.00 | 0.00 | 1014.4 | |
| 20260905132144 | 73 | 315 | 0.0 | 1.0 | 0.00 | 0.00 | 0.00 | 1014.3 | |
| 20260905131653 | 73 | 315 | 0.0 | 0.0 | 0.00 | 0.00 | 0.00 | 1014.4 | |
| 20260905131131 | 73 | 315 | 0.0 | 2.0 | 0.00 | 0.00 | 0.00 | 1014.3 | |
| 20260905130702 | 73 | 315 | 0.0 | 2.0 | 0.00 | 0.00 | 0.00 | 1014.3 | |
| 20260905130132 | 73 | 315 | 1.0 | 1.0 | 0.00 | 0.00 | 0.00 | 1014.2 | |
| 20260905125648 | 73 | 315 | 0.0 | 0.0 | 0.00 | 0.00 | 0.00 | 1014.3 | |
| 20260905125156 | 73 | 315 | 0.0 | 0.0 | 0.00 | 0.00 | 0.00 | 1014.2 | |
| 20260905124625 | 73 | 315 | 0.0 | 0.0 | 0.00 | 0.00 | 0.00 | 1014.1 | |
| 20260905124201 | 73 | 315 | 0.0 | 0.0 | 0.00 | 0.00 | 0.00 | 1014.0 | |
| 20260905123732 | 73 | 315 | 0.0 | 0.0 | 0.00 | 0.00 | 0.00 | 1013.9 | |
| 20260905123143 | 73 | 315 | 0.0 | 0.0 | 0.00 | 0.00 | 0.00 | 1013.8 | |
| 20260905122651 | 73 | 315 | 0.0 | 1.0 | 0.00 | 0.00 | 0.00 | 1013.9 | |
| 20260905122131 | 73 | 315 | 0.0 | 1.0 | 0.00 | 0.00 | 0.00 | 1013.9 | |
| 20260905121700 | 73 | 315 | 1.0 | 1.0 | 0.00 | 0.00 | 0.00 | 1013.9 | |
| 20260905121136 | 73 | 315 | 0.0 | 0.0 | 0.00 | 0.00 | 0.00 | 1013.8 | |
| 20260905120706 | 73 | 88 | 0.0 | 0.0 | 0.00 | 0.00 | 0.00 | 1013.7 | |
| 20260905120144 | 73 | 88 | 0.0 | 0.0 | 0.00 | 0.00 | 0.00 | 1013.7 | |
| 20260905115651 | 73 | 88 | 0.0 | 0.0 | 0.00 | 0.00 | 0.00 | 1013.7 | |
| 20260905115220 | 73 | 88 | 0.0 | 0.0 | 0.00 | 0.00 | 0.00 | 1013.6 | |
| 20260905114615 | 73 | 88 | 0.0 | 0.0 | 0.00 | 0.00 | 0.00 | 1013.7 | |
| 20260905114204 | 73 | 88 | 0.0 | 0.0 | 0.00 | 0.00 | 0.00 | 1013.7 | |
| 20260905113640 | 74 | 88 | 0.0 | 1.0 | 0.00 | 0.00 | 0.00 | 1013.7 | |
| 20260905113147 | 74 | 88 | 0.0 | 1.0 | 0.00 | 0.00 | 0.00 | 1013.6 | |
| 20260905112620 | 73 | 88 | 0.0 | 0.0 | 0.00 | 0.00 | 0.00 | 1013.6 | |
| 20260905112147 | 73 | 88 | 0.0 | 0.0 | 0.00 | 0.00 | 0.00 | 1013.5 | |
| 20260905111624 | 74 | 88 | 0.0 | 0.0 | 0.00 | 0.00 | 0.00 | 1013.6 | |
| 20260905111133 | 74 | 88 | 0.0 | 0.0 | 0.00 | 0.00 | 0.00 | 1013.6 | |
| 20260905110710 | 74 | 88 | 0.0 | 0.0 | 0.00 | 0.00 | 0.00 | 1013.7 | |
| 20260905110139 | 74 | 88 | 0.0 | 1.0 | 0.00 | 0.00 | 0.00 | 1013.7 | |
| 20260905105648 | 74 | 88 | 0.0 | 1.0 | 0.00 | 0.00 | 0.00 | 1013.7 | |
| 20260905105204 | 74 | 88 | 0.0 | 0.0 | 0.00 | 0.00 | 0.00 | 1013.6 | |
| 20260905104632 | 74 | 88 | 0.0 | 1.0 | 0.00 | 0.00 | 0.00 | 1013.6 | |
| 20260905104208 | 74 | 88 | 0.0 | 1.0 | 0.00 | 0.00 | 0.00 | 1013.4 | |
| 20260905103706 | 74 | 88 | 0.0 | 0.0 | 0.00 | 0.00 | 0.00 | 1013.3 | |
| 20260905103138 | 75 | 88 | 0.0 | 1.0 | 0.00 | 0.00 | 0.00 | 1013.3 | |
| 20260905102654 | 75 | 88 | 0.0 | 1.0 | 0.00 | 0.00 | 0.00 | 1013.3 | |
| 20260905102217 | 75 | 88 | 0.0 | 0.0 | 0.00 | 0.00 | 0.00 | 1013.4 | |
| 20260905101633 | 75 | 88 | 0.0 | 0.0 | 0.00 | 0.00 | 0.00 | 1013.3 | |
| 20260905101202 | 75 | 88 | 0.0 | 0.0 | 0.00 | 0.00 | 0.00 | 1013.4 | |
| 20260905100638 | 75 | 88 | 0.0 | 0.0 | 0.00 | 0.00 | 0.00 | 1013.4 | |
| 20260905100206 | 75 | 88 | 0.0 | 0.0 | 0.00 | 0.00 | 0.00 | 1013.4 | |
| 20260905095643 | 75 | 88 | 0.0 | 0.0 | 0.00 | 0.00 | 0.00 | 1013.4 | |
| 20260905095115 | 75 | 88 | 0.0 | 0.0 | 0.00 | 0.00 | 0.00 | 1013.2 | |
| 20260905094652 | 75 | 88 | 0.0 | 0.0 | 0.00 | 0.00 | 0.00 | 1013.3 | |
| 20260905094219 | 75 | 88 | 0.0 | 0.0 | 0.00 | 0.00 | 0.00 | 1013.3 | |
| 20260905093627 | 76 | 88 | 0.0 | 0.0 | 0.00 | 0.00 | 0.00 | 1013.3 | |
| 20260905093204 | 76 | 88 | 0.0 | 0.0 | 0.00 | 0.00 | 0.00 | 1013.3 | |
| 20260905092631 | 76 | 88 | 0.0 | 0.0 | 0.00 | 0.00 | 0.00 | 1013.3 | |
| 20260905092206 | 76 | 88 | 0.0 | 0.0 | 0.00 | 0.00 | 0.00 | 1013.2 | |
| 20260905091634 | 76 | 88 | 0.0 | 0.0 | 0.00 | 0.00 | 0.00 | 1013.3 | |
| 20260905091150 | 76 | 88 | 0.0 | 0.0 | 0.00 | 0.00 | 0.00 | 1013.4 | |
| 20260905090622 | 77 | 88 | 0.0 | 0.0 | 0.00 | 0.00 | 0.00 | 1013.3 | |
| 20260905090159 | 77 | 88 | 0.0 | 0.0 | 0.00 | 0.00 | 0.00 | 1013.2 | |
| 20260905085627 | 77 | 88 | 0.0 | 0.0 | 0.00 | 0.00 | 0.00 | 1013.2 | |
| 20260905085203 | 77 | 88 | 0.0 | 1.0 | 0.00 | 0.00 | 0.00 | 1013.3 | |
| 20260905084730 | 77 | 88 | 0.0 | 1.0 | 0.00 | 0.00 | 0.00 | 1013.3 | |
| 20260905084135 | 77 | 88 | 0.0 | 0.0 | 0.00 | 0.00 | 0.00 | 1013.4 | |
| 20260905083648 | 77 | 88 | 0.0 | 0.0 | 0.00 | 0.00 | 0.00 | 1013.5 | |
| 20260905083117 | 78 | 88 | 0.0 | 2.0 | 0.00 | 0.00 | 0.00 | 1013.5 | |
| 20260905082654 | 78 | 88 | 0.0 | 2.0 | 0.00 | 0.00 | 0.00 | 1013.6 | |
| 20260905082223 | 78 | 88 | 1.0 | 2.0 | 0.00 | 0.00 | 0.00 | 1013.6 | |
| 20260905081639 | 78 | 88 | 1.0 | 2.0 | 0.00 | 0.00 | 0.00 | 1013.5 | |
| 20260905081205 | 78 | 138 | 1.0 | 2.0 | 0.00 | 0.00 | 0.00 | 1013.5 |